Flag for Brazil Weather past 2 weeks in Belém, Para, Brazil

Now
84 °F

Partly sunny.


Feels Like: 88 °F
Forecast: 74 / 88 °F
Wind: 9 mph from East

Location: Belem Aeroporto

Current Time: Sep 1, 2014 at 11:39:07 AM

Latest Report: Sep 1, 2014 at 11:00 AM


Visibility: N/A

Pressure: 29.98 "Hg

Humidity: 62%

Dew point: 70 °F

Location of BelémLocation

Historic Weather in Belém — Graph

°F

Belém temperature yesterday

Maximum temperature yesterday: 88 °F (at 1:00 PM)
Minimum temperature yesterday: 39 °F (at 5:00 PM)
Average temperature yesterday: 77 °F

Past Weeks' High & Low Weather Summary

 TemperatureHumidityPressure
High93 °F (Aug 19, 2:00 PM)100% (Aug 29, 11:00 PM)29.98 "Hg (Aug 29, 11:00 PM)
Low39 °F (Aug 31, 5:00 PM)39% (Aug 19, 2:00 PM)29.80 "Hg (Aug 17, 4:00 PM)
Average80 °F79%29.90 "Hg
* Reported Aug 17 10:00 AM — Sep 1 10:00 AM, Belém, Weather by CustomWeather, © 2014

Note: Actual official high and low records may vary slightly from our data, if they occured in-between our weather recording intervals... More about our weather records

Advertising

Belém weather history for previous 24 hours

 ConditionsComfort  
Time TempWeatherWind HumidityBarometerVisibility
10:00 AM
Sep 1
84 °FScattered clouds.14 mph66%29.98 "HgN/A
9:00 AM82 °FScattered clouds.10 mph74%29.98 "HgN/A
8:00 AM79 °FPassing clouds.8 mph84%29.95 "HgN/A
7:00 AM75 °FSunny.5 mph94%29.92 "Hg10 mi
6:00 AM73 °FClear.2 mph100%29.92 "Hg10 mi
5:00 AM73 °FClear.2 mph100%29.92 "Hg10 mi
4:00 AM73 °FClear.2 mph100%29.92 "Hg10 mi
3:00 AM73 °FClear.6 mph100%29.92 "Hg10 mi
2:00 AM73 °FClear.2 mph100%29.92 "Hg10 mi
1:00 AM75 °FClear.3 mph94%29.95 "Hg10 mi
12:00 AM75 °FClear.5 mph94%29.95 "Hg10 mi
11:00 PM
Aug 31
75 °FPassing clouds.5 mph94%29.95 "HgN/A
10:00 PM75 °FPassing clouds.2 mph100%29.95 "HgN/A
9:00 PM77 °FPassing clouds.3 mph89%29.92 "HgN/A
8:00 PM77 °FPassing clouds.3 mph94%29.92 "HgN/A
7:00 PM77 °FPassing clouds.3 mph89%29.89 "HgN/A
6:00 PM77 °FBroken clouds.2 mph94%29.89 "HgN/A
5:00 PM39 °FThunderstorms. Broken clouds.7 mph100%29.89 "Hg2 mi
4:08 PM77 °FRain. Broken clouds.13 mph83%N/A1 mi
4:00 PM82 °FLight rain. Partly sunny.10 mph79%N/AN/A
3:00 PM84 °FLight rain. Partly sunny.12 mph74%29.89 "Hg2 mi
2:00 PM86 °FPartly sunny.8 mph66%29.89 "HgN/A
1:00 PM88 °FPartly sunny.7 mph52%29.92 "HgN/A
12:00 PM86 °FPartly sunny.7 mph59%29.95 "HgN/A
11:00 AM84 °FPartly sunny.10 mph62%29.98 "HgN/A
Weather by CustomWeather, © 2014

See weather overviewHow to use our weather pages